[[{"header":{"parameterUnit":"m.s-1","parameterCategory":2,"la1":30.2991,"la2":30.254,"lo1":-89.0895,"lo2":-89.0444,"dy":0.0017,"dx":0.0017,"nx":28,"ny":28,"refTime":"2023-08-03T09:00:00:Z","depth":"0","parameterNumber":2,"parameterNumberName":"U-component_of_CURRENTS"},"data":[0,0,0,0,0,0,0,0,0,0,0,0,0,0,0,0,0,0,0,0,0,0,0,0,0,0,0,0,0,0,0,0,0,0,0,0,0,0,0,0,0,0,0,0,0,0,0,0,0,0,0,0,0,0,0,0,0,0,0.1459,0.1459,0,0.1503,0.1504,0.1506,0.1568,0.1568,0.1568,0.1568,0.1677,0.168,0.1683,0,0,0,0,0,0,0,0,0,0,0,0,0,0.1446,0.1446,0.1459,0.1459,0.1458,0.1503,0.1504,0.1506,0.1568,0.1568,0.1568,0.1568,0.1676,0.1679,0.1683,0,0,0,0,0,0,0,0,0,0,0,0,0,0.1477,0.1447,0.1459,0.1487,0.1489,0.1503,0.1505,0.1507,0.1568,0.1568,0.1568,0.1568,0.1675,0.1679,0.1683,0.1707,0,0,0.1696,0.1698,0,0,0,0,0,0,0,0,0.1475,0.1479,0.1483,0.1485,0.1487,0.1521,0.1539,0.1573,0.1568,0.1549,0.1568,0.1568,0.1624,0.1632,0.1654,0.1712,0.1716,0.1697,0.1699,0.1701,0.1702,0,0,0,0,0,0,0,0.1473,0.1477,0.1488,0.1482,0.1485,0.1502,0.1507,0.1546,0.1595,0.1551,0.1553,0.1541,0.1627,0.165,0.1657,0.1718,0.1696,0.17,0.1703,0.1704,0.1931,0.1935,0,0,0,0,0,0,0.1445,0.1475,0.1486,0.1488,0.1469,0.1501,0.1508,0.1519,0.1593,0.1601,0.154,0.1543,0.1643,0.1652,0.1661,0.1763,0.1701,0.1705,0.1707,0.1928,0.1932,0.1936,0,0,0,0,0,0,0.1445,0.1447,0.1484,0.1472,0.1477,0.15,0.1512,0.1519,0.1536,0.1582,0.1594,0.1548,0.1643,0.1655,0.173,0.1765,0.1707,0.1711,0.1924,0.1929,0.1934,0.1922,0,0,0,0,0,0,0.1445,0.1447,0.1464,0.1471,0.1476,0.1498,0.1511,0.1519,0.1524,0.1528,0.1593,0.1603,0.1644,0.1724,0.1734,0.177,0.1714,0.1919,0.1926,0.1932,0.1918,0.1926,0.1933,0,0,0,0,0,0.1445,0.1464,0.1465,0.1466,0.1494,0.1497,0.1504,0.1526,0.1523,0.1542,0.1603,0.1601,0.1774,0.1729,0.1741,0.1778,0.1916,0.1924,0.1932,0.1914,0.1924,0.1933,0,0,0,0,0,0,0.1471,0.1471,0.1473,0.1493,0.1493,0.1504,0.1522,0.1517,0.1577,0.1585,0.1632,0.1649,0.1733,0.1765,0.1715,0.1873,0.185,0.186,0.1833,0.1843,0.185,0.1824,0.1717,0,0,0,0,0,0.1478,0.1498,0.1487,0.1506,0.1503,0.1507,0.1514,0.1516,0.1551,0.1576,0.1626,0.1698,0.1776,0.1812,0.1883,0.195,0.1965,0.1992,0.2,0.2005,0.1999,0.2047,0.2056,0.1962,0.1962,0.1961,0,0,0.1493,0.1494,0.1506,0.1512,0.1519,0.1539,0.1516,0.1518,0.1554,0.1579,0.1668,0.1717,0.1802,0.1898,0.1938,0.1924,0.2049,0.2016,0.2019,0.2009,0.2056,0.2064,0.2071,0.1967,0.1966,0.1965,0,0,0.1522,0.153,0.1553,0.1554,0.1545,0.1555,0.1547,0.1557,0.1587,0.1655,0.1701,0.1766,0.1879,0.1947,0.1997,0.2086,0.2085,0.2118,0.2129,0.2176,0.2182,0.2187,0.2232,0.2242,0.2122,0.2122,0.2122,0,0.1553,0.1556,0.1559,0.1574,0.1575,0.1561,0.1574,0.1614,0.1655,0.168,0.1691,0.1853,0.191,0.2019,0.2064,0.2097,0.212,0.2074,0.2178,0.2184,0.219,0.2234,0.2245,0.2122,0.2122,0.2122,0.2122,0,0.1587,0.1591,0.1599,0.1627,0.1643,0.1638,0.1668,0.1704,0.1726,0.1753,0.1845,0.1926,0.2012,0.2054,0.2089,0.2172,0.2175,0.2173,0.2134,0.2197,0.2242,0.2253,0.2122,0.2122,0.2122,0.2122,0,0,0.1621,0.1629,0.1623,0.1625,0.1651,0.1658,0.1734,0.1773,0.1803,0.187,0.1922,0.2053,0.2052,0.2109,0.215,0.2194,0.2262,0.2198,0.2201,0.2205,0.2364,0.2302,0.2308,0.2266,0.2268,0.2269,0.2381,0,0.1634,0.1658,0.1665,0.1688,0.1689,0.1714,0.1782,0.1828,0.1871,0.1932,0.1997,0.2075,0.2089,0.2123,0.2169,0.2246,0.229,0.2232,0.2335,0.2338,0.2243,0.2318,0.222,0.2305,0.2392,0.2394,0.2395,0,0.1627,0.1641,0.1665,0.1681,0.1688,0.1723,0.1783,0.1843,0.1931,0.1963,0.2027,0.2074,0.2174,0.2163,0.2298,0.2258,0.2309,0.2355,0.236,0.2306,0.2295,0.226,0.2322,0.2285,0.2412,0.2411,0.241,0,0.1593,0.1615,0.1629,0.1638,0.1691,0.1717,0.176,0.1842,0.1884,0.198,0.2009,0.2114,0.2172,0.2255,0.2344,0.2332,0.2469,0.2469,0.246,0.2457,0.2396,0.2383,0.2398,0.2549,0.2549,0.2548,0.2548,0,0.1568,0.1571,0.1609,0.1614,0.1637,0.1691,0.1733,0.1791,0.187,0.1922,0.2011,0.2066,0.2193,0.2281,0.2358,0.2439,0.2485,0.2472,0.2483,0.2394,0.238,0.2361,0.235,0.2552,0.2552,0.2551,0.255,0,0.1527,0.1551,0.1554,0.1599,0.1614,0.1636,0.1705,0.1743,0.1819,0.1892,0.1928,0.205,0.217,0.2276,0.2422,0.2449,0.2481,0.2552,0.2433,0.2427,0.2366,0.2358,0.23,0.2245,0.2577,0.2576,0.2575,0,0.1519,0.151,0.1531,0.154,0.1559,0.1599,0.1633,0.1711,0.1754,0.1882,0.1917,0.2043,0.2136,0.231,0.2389,0.2507,0.2449,0.2456,0.241,0.2353,0.2355,0.2263,0.2215,0.2348,0.2346,0.2343,0.2342,0,0.1496,0.1492,0.1509,0.1508,0.1528,0.1556,0.1608,0.1629,0.1737,0.1799,0.1906,0.1993,0.2146,0.2217,0.2328,0.2389,0.2334,0.2414,0.2396,0.2206,0.2069,0.2024,0.2289,0.2323,0.2325,0.2326,0.2327,0.2328,0.1487,0.1479,0.1482,0.1484,0.1502,0.1519,0.1534,0.1595,0.1656,0.1741,0.1848,0.1932,0.2034,0.2187,0.2222,0.2214,0.2229,0.2185,0.2196,0.2119,0.2004,0.2215,0.2226,0.2227,0.2228,0.2229,0.223,0,0.1477,0.147,0.1464,0.1465,0.1462,0.1482,0.1524,0.1533,0.1586,0.166,0.1744,0.1829,0.1891,0.1967,0.2046,0.2021,0.1936,0.198,0.185,0.1828,0.2066,0.1992,0.1901,0.1901,0.1901,0.1901,0.1901,0.1901,0.1478,0.1463,0.1447,0.1426,0.1426,0.1419,0.1432,0.1446,0.148,0.1514,0.155,0.1614,0.1799,0.1912,0.1922,0.1877,0.1776,0.1681,0.1709,0.1906,0.1926,0.1944,0.1872,0.1757,0.1757,0.1379,0.1376,0.1374]},{"header":{"parameterUnit":"m.s-1","parameterCategory":2,"la1":30.2991,"la2":30.254,"lo1":-89.0895,"lo2":-89.0444,"dy":0.0017,"dx":0.0017,"nx":28,"ny":28,"refTime":"2023-08-03T09:00:00:Z","depth":"0","parameterNumber":3,"parameterNumberName":"V-component_of_CURRENTS"},"data":[0,0,0,0,0,0,0,0,0,0,0,0,0,0,0,0,0,0,0,0,0,0,0,0,0,0,0,0,0,0,0,0,0,0,0,0,0,0,0,0,0,0,0,0,0,0,0,0,0,0,0,0,0,0,0,0,0,0,-0.0505,-0.0504,0,-0.0497,-0.0498,-0.0499,-0.053,-0.053,-0.0529,-0.0529,-0.0477,-0.0476,-0.0475,0,0,0,0,0,0,0,0,0,0,0,0,0,-0.0533,-0.0534,-0.0505,-0.0504,-0.0503,-0.0497,-0.0498,-0.0499,-0.053,-0.053,-0.0529,-0.0529,-0.0478,-0.0476,-0.0475,0,0,0,0,0,0,0,0,0,0,0,0,0,-0.0533,-0.0534,-0.0505,-0.0509,-0.0509,-0.0497,-0.0498,-0.0499,-0.053,-0.053,-0.0529,-0.0529,-0.0478,-0.0476,-0.0474,-0.0466,0,0,-0.0468,-0.0468,0,0,0,0,0,0,0,0,-0.0534,-0.0534,-0.051,-0.0509,-0.0508,-0.0504,-0.0488,-0.0482,-0.053,-0.0534,-0.0529,-0.0529,-0.0475,-0.0473,-0.0489,-0.0464,-0.0462,-0.0468,-0.0467,-0.0466,-0.0466,0,0,0,0,0,0,0,-0.0534,-0.0534,-0.0514,-0.0508,-0.0507,-0.0505,-0.0507,-0.0488,-0.0513,-0.0533,-0.0533,-0.0514,-0.0476,-0.0491,-0.0487,-0.0461,-0.0468,-0.0467,-0.0465,-0.0465,-0.0426,-0.0426,0,0,0,0,0,0,-0.0513,-0.0534,-0.0514,-0.0512,-0.0508,-0.0504,-0.0506,-0.0515,-0.0514,-0.0511,-0.0514,-0.0515,-0.0494,-0.049,-0.0486,-0.0464,-0.0466,-0.0465,-0.0463,-0.0426,-0.0426,-0.0426,0,0,0,0,0,0,-0.0514,-0.0512,-0.0514,-0.0512,-0.0511,-0.0503,-0.0513,-0.0515,-0.0521,-0.0498,-0.0497,-0.0516,-0.0494,-0.0488,-0.0477,-0.0462,-0.0464,-0.0462,-0.0426,-0.0426,-0.0426,-0.0428,0,0,0,0,0,0,-0.0516,-0.0514,-0.0532,-0.0512,-0.051,-0.0501,-0.0512,-0.0514,-0.0505,-0.0507,-0.0499,-0.0495,-0.0493,-0.048,-0.0475,-0.046,-0.046,-0.0426,-0.0426,-0.0426,-0.0428,-0.0428,-0.0429,0,0,0,0,0,-0.0517,-0.0528,-0.0534,-0.0531,-0.053,-0.05,-0.0501,-0.0501,-0.0505,-0.0509,-0.0512,-0.0495,-0.0478,-0.0479,-0.0473,-0.0457,-0.0426,-0.0426,-0.0426,-0.0428,-0.0428,-0.0429,0,0,0,0,0,0,-0.0544,-0.053,-0.0536,-0.0543,-0.0521,-0.05,-0.0503,-0.0495,-0.0505,-0.0505,-0.0498,-0.0495,-0.0481,-0.0471,-0.0472,-0.0448,-0.0447,-0.0447,-0.045,-0.0451,-0.0451,-0.0425,-0.0459,0,0,0,0,0,-0.0558,-0.0563,-0.0541,-0.0541,-0.0536,-0.0521,-0.0514,-0.0503,-0.0492,-0.0498,-0.0495,-0.0489,-0.048,-0.0467,-0.0463,-0.0444,-0.0431,-0.043,-0.043,-0.043,-0.0406,-0.0387,-0.0383,-0.0427,-0.0427,-0.0427,0,0,-0.0559,-0.0553,-0.0555,-0.0546,-0.0539,-0.052,-0.0521,-0.0496,-0.0479,-0.0486,-0.0487,-0.0491,-0.0478,-0.0469,-0.046,-0.0454,-0.0418,-0.0431,-0.0431,-0.0406,-0.0386,-0.0382,-0.0378,-0.0428,-0.0428,-0.0427,0,0,-0.0545,-0.057,-0.0567,-0.0551,-0.0523,-0.0514,-0.0501,-0.0485,-0.0488,-0.0476,-0.0483,-0.0476,-0.0467,-0.0457,-0.0447,-0.0441,-0.0426,-0.0443,-0.0412,-0.0395,-0.039,-0.0386,-0.039,-0.0386,-0.0436,-0.0436,-0.0436,0,-0.0558,-0.0542,-0.0556,-0.054,-0.0515,-0.0508,-0.0478,-0.0482,-0.0462,-0.0449,-0.0472,-0.0455,-0.0455,-0.0419,-0.0431,-0.0437,-0.0435,-0.0412,-0.0394,-0.0389,-0.0385,-0.0389,-0.0384,-0.0436,-0.0436,-0.0436,-0.0436,0,-0.0528,-0.0518,-0.0509,-0.0496,-0.0483,-0.0447,-0.0437,-0.0435,-0.0437,-0.0424,-0.0405,-0.0422,-0.0402,-0.041,-0.042,-0.0386,-0.0399,-0.0403,-0.039,-0.038,-0.0386,-0.0381,-0.0436,-0.0436,-0.0436,-0.0436,0,0,-0.0531,-0.05,-0.0492,-0.047,-0.0447,-0.0423,-0.041,-0.0377,-0.0345,-0.0361,-0.0322,-0.0336,-0.0342,-0.0333,-0.0347,-0.0335,-0.0329,-0.0357,-0.0356,-0.0355,-0.0305,-0.0326,-0.0323,-0.0333,-0.0331,-0.033,-0.0331,0,-0.0497,-0.0455,-0.0447,-0.0392,-0.0364,-0.0358,-0.0336,-0.031,-0.0302,-0.0276,-0.0284,-0.0262,-0.0313,-0.0304,-0.0305,-0.0313,-0.0312,-0.0329,-0.0318,-0.0317,-0.0331,-0.0316,-0.0294,-0.0292,-0.0326,-0.0325,-0.0325,0,-0.0457,-0.043,-0.0376,-0.0322,-0.0311,-0.0285,-0.0236,-0.0214,-0.0182,-0.0177,-0.0165,-0.0173,-0.0165,-0.0214,-0.0222,-0.0233,-0.0267,-0.0283,-0.0284,-0.0289,-0.0327,-0.0302,-0.0282,-0.0376,-0.0318,-0.0318,-0.0319,0,-0.042,-0.0372,-0.0326,-0.0306,-0.0257,-0.0233,-0.0212,-0.0176,-0.0141,-0.0111,-0.0077,-0.0082,-0.0074,-0.011,-0.0172,-0.0191,-0.0182,-0.0211,-0.0261,-0.0265,-0.0232,-0.0234,-0.0288,-0.0209,-0.0209,-0.0209,-0.0209,0,-0.0371,-0.0325,-0.0305,-0.0268,-0.0205,-0.0195,-0.0122,-0.0106,-0.0062,0.0007,-0.0024,0.0026,-0.0046,-0.0059,-0.013,-0.0181,-0.0154,-0.0241,-0.0254,-0.0237,-0.0239,-0.0308,-0.0359,-0.0209,-0.0209,-0.0209,-0.0209,0,-0.0329,-0.0306,-0.0246,-0.02,-0.0179,-0.0141,-0.0073,-0.0018,0.001,0.0095,0.0108,0.0114,0.01,0.0019,-0.0032,-0.0115,-0.0208,-0.0195,-0.0185,-0.0197,-0.0338,-0.0389,-0.0421,-0.0445,-0.0242,-0.0242,-0.0243,0,-0.0307,-0.0272,-0.0208,-0.0158,-0.0132,-0.0073,-0.0015,0.0015,0.0076,0.0162,0.0213,0.0216,0.0243,0.0142,0.0005,-0.0114,-0.0202,-0.0189,-0.0219,-0.0329,-0.0395,-0.043,-0.0451,-0.0189,-0.0189,-0.0189,-0.0189,0,-0.0266,-0.0244,-0.0191,-0.0099,-0.0033,0.004,0.0115,0.0171,0.023,0.0308,0.0403,0.0429,0.0328,0.0227,0.004,-0.0052,-0.024,-0.0191,-0.029,-0.0338,-0.039,-0.0426,-0.023,-0.0188,-0.0188,-0.0188,-0.0188,-0.0188,-0.0236,-0.0195,-0.0121,-0.0031,0.0053,0.0154,0.0237,0.0324,0.0435,0.0576,0.0554,0.0631,0.0435,0.0195,0.004,-0.0233,-0.0235,-0.0315,-0.0363,-0.0386,-0.0417,-0.0234,-0.0219,-0.0219,-0.0219,-0.022,-0.022,0,-0.0197,-0.0135,-0.0052,0.0073,0.018,0.0204,0.0338,0.0443,0.0601,0.0707,0.0794,0.074,0.0496,0.0228,-0.0147,-0.036,-0.0426,-0.0479,-0.0519,-0.0528,-0.0345,-0.0352,-0.0383,-0.0383,-0.0383,-0.0383,-0.0383,-0.0383,-0.0165,-0.007,-0.0026,0.0161,0.0258,0.0412,0.0498,0.0656,0.0768,0.0944,0.1,0.1007,0.081,0.0068,-0.0413,-0.053,-0.0663,-0.0702,-0.0773,-0.0661,-0.065,-0.0639,-0.0658,-0.0753,-0.0753,-0.0914,-0.0916,-0.0918]}],[{"header":{"parameterUnit":"m.s-1","parameterCategory":2,"la1":30.2991,"la2":30.254,"lo1":-89.0895,"lo2":-89.0444,"dy":0.0017,"dx":0.0017,"nx":28,"ny":28,"refTime":"2023-08-03T09:00:00:Z","depth":"2","parameterNumber":2,"parameterNumberName":"U-component_of_CURRENTS"},"data":[0,0,0,0,0,0,0,0,0,0,0,0,0,0,0,0,0,0,0,0,0,0,0,0,0,0,0,0,0,0,0,0,0,0,0,0,0,0,0,0,0,0,0,0,0,0,0,0,0,0,0,0,0,0,0,0,0,0,0.083,0.0828,0,0.0822,0.0823,0.0825,0.0972,0.0974,0.0976,0.0977,0.104,0.104,0.104,0,0,0,0,0,0,0,0,0,0,0,0,0,0.0756,0.076,0.0831,0.0828,0.0826,0.0821,0.0824,0.0826,0.0972,0.0974,0.0976,0.0978,0.104,0.104,0.104,0,0,0,0,0,0,0,0,0,0,0,0,0,0.0794,0.0761,0.0831,0.0881,0.0884,0.0821,0.0824,0.0826,0.0971,0.0974,0.0977,0.0979,0.104,0.104,0.104,0.0985,0,0,0.104,0.104,0,0,0,0,0,0,0,0,0.0792,0.08,0.0876,0.0877,0.088,0.088,0.0818,0.0875,0.0971,0.0963,0.0977,0.0981,0.0976,0.0981,0.1006,0.0988,0.0991,0.104,0.104,0.104,0.104,0,0,0,0,0,0,0,0.079,0.08,0.0851,0.0873,0.0875,0.0827,0.0841,0.0831,0.0974,0.0964,0.0968,0.0929,0.0981,0.1006,0.1008,0.0992,0.104,0.104,0.104,0.104,0.1206,0.121,0,0,0,0,0,0,0.0753,0.0799,0.0851,0.0848,0.0815,0.0825,0.0841,0.0897,0.0972,0.0979,0.0927,0.0935,0.1005,0.1008,0.1011,0.1134,0.104,0.104,0.104,0.1202,0.1207,0.1212,0,0,0,0,0,0,0.0753,0.0762,0.0851,0.0798,0.0803,0.0823,0.0884,0.0894,0.0943,0.0939,0.0953,0.0964,0.1007,0.1011,0.1067,0.1131,0.104,0.104,0.1196,0.1203,0.1209,0.1262,0,0,0,0,0,0,0.0753,0.0765,0.0833,0.0799,0.0804,0.0828,0.0879,0.0891,0.0901,0.0915,0.0974,0.0982,0.1009,0.1067,0.1067,0.1129,0.104,0.1191,0.1199,0.1207,0.1255,0.127,0.1282,0,0,0,0,0,0.0752,0.0772,0.0839,0.0844,0.0888,0.0825,0.0827,0.0861,0.09,0.0921,0.0994,0.0982,0.1122,0.1068,0.1068,0.1132,0.1187,0.1197,0.1207,0.1248,0.1267,0.1282,0,0,0,0,0,0,0.0765,0.0786,0.0859,0.0894,0.0881,0.0842,0.0834,0.0861,0.0934,0.0947,0.1,0.1013,0.1093,0.1106,0.1047,0.1217,0.1166,0.1176,0.1198,0.1215,0.1229,0.123,0.104,0,0,0,0,0,0.0801,0.0832,0.0839,0.0861,0.0859,0.0865,0.0855,0.086,0.0878,0.0915,0.0969,0.1045,0.1126,0.1164,0.1209,0.1265,0.1269,0.1325,0.1339,0.135,0.1359,0.1414,0.1432,0.1245,0.1244,0.1244,0,0,0.0798,0.081,0.0833,0.0865,0.0863,0.0887,0.0874,0.0821,0.0874,0.09,0.1013,0.1064,0.115,0.1248,0.1288,0.127,0.1411,0.1363,0.1371,0.1374,0.1426,0.1444,0.1459,0.1251,0.125,0.1249,0,0,0.0798,0.0835,0.0899,0.0864,0.0838,0.0852,0.0844,0.0838,0.0887,0.0967,0.103,0.1129,0.1232,0.1323,0.1385,0.1495,0.1469,0.152,0.1596,0.165,0.1664,0.1677,0.1707,0.1722,0.1542,0.1542,0.1542,0,0.0837,0.0895,0.0887,0.0903,0.0865,0.0855,0.0879,0.0917,0.0943,0.099,0.1019,0.1233,0.129,0.1442,0.1519,0.1523,0.1534,0.1513,0.1662,0.1675,0.1686,0.1714,0.173,0.1546,0.1546,0.1545,0.1545,0,0.0852,0.0912,0.0887,0.0972,0.0956,0.0894,0.0928,0.0971,0.1037,0.1095,0.1231,0.1326,0.1463,0.1518,0.1568,0.1699,0.1671,0.1651,0.16,0.1707,0.1732,0.1747,0.1551,0.155,0.1549,0.1548,0,0,0.0888,0.0934,0.0908,0.0973,0.0943,0.0924,0.1005,0.1085,0.1159,0.1249,0.1376,0.1553,0.1581,0.1655,0.1705,0.1784,0.1895,0.1769,0.177,0.1765,0.1997,0.1871,0.1874,0.1885,0.1888,0.1891,0.1978,0,0.0924,0.0966,0.0972,0.1023,0.106,0.104,0.1127,0.118,0.1258,0.1376,0.1483,0.1617,0.1638,0.1712,0.1792,0.1874,0.1937,0.1872,0.1924,0.1926,0.1772,0.1889,0.1735,0.1791,0.1992,0.1995,0.1997,0,0.0947,0.0961,0.1018,0.1092,0.1103,0.1152,0.1221,0.1292,0.1426,0.1481,0.1599,0.1669,0.1832,0.1817,0.1984,0.1936,0.1977,0.2023,0.2026,0.1898,0.1828,0.1722,0.181,0.2021,0.2019,0.2017,0.2016,0,0.0937,0.0995,0.1044,0.1021,0.1116,0.1169,0.1237,0.1338,0.1403,0.1546,0.1612,0.1764,0.1862,0.195,0.2047,0.2029,0.2191,0.2169,0.2083,0.2073,0.1949,0.1922,0.2263,0.2262,0.2262,0.2262,0.2262,0,0.0935,0.0972,0.105,0.1041,0.112,0.1184,0.1291,0.1359,0.1479,0.1566,0.1666,0.1746,0.19,0.2,0.207,0.2119,0.2202,0.2116,0.2099,0.1964,0.1939,0.2138,0.2122,0.2265,0.2265,0.2264,0.2263,0,0.0939,0.0976,0.1042,0.1108,0.1139,0.1187,0.1304,0.1383,0.148,0.1591,0.1643,0.1774,0.1882,0.1989,0.2137,0.2132,0.2205,0.2184,0.2001,0.196,0.2047,0.2034,0.2127,0.2123,0.212,0.2118,0.2116,0,0.0951,0.0996,0.1039,0.107,0.1111,0.1193,0.1261,0.137,0.1437,0.1592,0.1644,0.1773,0.1833,0.1973,0.1994,0.2057,0.2128,0.1934,0.1874,0.2065,0.204,0.2032,0.2023,0.1747,0.1742,0.1738,0.1735,0,0.0978,0.0998,0.1023,0.1057,0.1123,0.1182,0.1282,0.132,0.1454,0.1525,0.1626,0.1694,0.1778,0.1763,0.1797,0.1815,0.1915,0.1848,0.2135,0.1777,0.1706,0.1681,0.1686,0.1699,0.1703,0.1705,0.1707,0.1709,0.0983,0.0999,0.1031,0.107,0.1127,0.1171,0.1205,0.1281,0.1354,0.143,0.153,0.1563,0.1597,0.1558,0.1549,0.1545,0.1663,0.1631,0.1645,0.1663,0.1576,0.1501,0.1439,0.1441,0.1443,0.1444,0.1446,0,0.0991,0.103,0.1052,0.109,0.1116,0.1156,0.1223,0.1221,0.1251,0.1312,0.1364,0.1273,0.1254,0.1306,0.1236,0.1242,0.1254,0.1213,0.1231,0.1266,0.1297,0.1193,0.0954,0.0952,0.0951,0.095,0,0,0.1036,0.1032,0.1034,0.1068,0.1097,0.1116,0.1131,0.11,0.1116,0.1085,0.109,0.1169,0.1244,0.1069,0.1055,0.1,0.1127,0.0963,0.1355,0.1408,0.1438,0.1531,0.1407,0,0,0,0,0]},{"header":{"parameterUnit":"m.s-1","parameterCategory":2,"la1":30.2991,"la2":30.254,"lo1":-89.0895,"lo2":-89.0444,"dy":0.0017,"dx":0.0017,"nx":28,"ny":28,"refTime":"2023-08-03T09:00:00:Z","depth":"2","parameterNumber":3,"parameterNumberName":"V-component_of_CURRENTS"},"data":[0,0,0,0,0,0,0,0,0,0,0,0,0,0,0,0,0,0,0,0,0,0,0,0,0,0,0,0,0,0,0,0,0,0,0,0,0,0,0,0,0,0,0,0,0,0,0,0,0,0,0,0,0,0,0,0,0,0,-0.0244,-0.0243,0,-0.0255,-0.0257,-0.0259,-0.0375,-0.0376,-0.0376,-0.0377,-0.0379,-0.0379,-0.0378,0,0,0,0,0,0,0,0,0,0,0,0,0,-0.0236,-0.0238,-0.0245,-0.0242,-0.024,-0.0254,-0.0257,-0.0259,-0.0375,-0.0376,-0.0376,-0.0377,-0.038,-0.0379,-0.0378,0,0,0,0,0,0,0,0,0,0,0,0,0,-0.0266,-0.0239,-0.0245,-0.0282,-0.0283,-0.0254,-0.0257,-0.026,-0.0375,-0.0376,-0.0377,-0.0378,-0.038,-0.0379,-0.0378,-0.0352,0,0,-0.0376,-0.0375,0,0,0,0,0,0,0,0,-0.0264,-0.0269,-0.0278,-0.0279,-0.028,-0.0293,-0.0253,-0.0282,-0.0374,-0.0366,-0.0377,-0.0378,-0.0333,-0.0336,-0.0371,-0.0353,-0.0353,-0.0375,-0.0375,-0.0375,-0.0374,0,0,0,0,0,0,0,-0.0262,-0.0268,-0.0274,-0.0275,-0.0276,-0.0265,-0.0274,-0.0261,-0.0362,-0.0367,-0.0369,-0.0331,-0.0337,-0.0372,-0.0371,-0.0353,-0.0376,-0.0375,-0.0374,-0.0374,-0.0353,-0.0353,0,0,0,0,0,0,-0.0215,-0.0267,-0.0273,-0.0271,-0.0247,-0.0263,-0.0274,-0.0308,-0.0363,-0.0365,-0.033,-0.0336,-0.0373,-0.0372,-0.0371,-0.0365,-0.0375,-0.0374,-0.0373,-0.0353,-0.0353,-0.0353,0,0,0,0,0,0,-0.0217,-0.0219,-0.0272,-0.0245,-0.0248,-0.026,-0.0298,-0.0307,-0.034,-0.033,-0.0338,-0.0349,-0.0373,-0.0372,-0.0379,-0.0365,-0.0373,-0.0373,-0.0353,-0.0353,-0.0353,-0.0338,0,0,0,0,0,0,-0.0218,-0.0222,-0.0265,-0.0245,-0.0247,-0.0253,-0.0295,-0.0306,-0.0302,-0.0312,-0.0348,-0.0351,-0.0374,-0.038,-0.0378,-0.0364,-0.0372,-0.0353,-0.0353,-0.0353,-0.0338,-0.0337,-0.0336,0,0,0,0,0,-0.0219,-0.0225,-0.027,-0.0269,-0.0299,-0.0249,-0.0254,-0.0279,-0.0301,-0.0317,-0.0352,-0.035,-0.0378,-0.038,-0.0377,-0.0362,-0.0353,-0.0353,-0.0353,-0.0339,-0.0337,-0.0336,0,0,0,0,0,0,-0.0234,-0.0234,-0.0284,-0.0296,-0.0281,-0.026,-0.025,-0.0269,-0.0314,-0.0319,-0.035,-0.0354,-0.0357,-0.0358,-0.0359,-0.0357,-0.0363,-0.0363,-0.0353,-0.0352,-0.0351,-0.0334,-0.0371,0,0,0,0,0,-0.0258,-0.027,-0.0266,-0.0269,-0.0262,-0.0268,-0.0259,-0.0266,-0.0268,-0.0292,-0.0323,-0.0343,-0.0353,-0.0352,-0.0366,-0.0353,-0.0349,-0.0343,-0.0342,-0.0341,-0.0326,-0.0317,-0.0313,-0.0352,-0.0352,-0.0352,0,0,-0.0255,-0.025,-0.0262,-0.0272,-0.0268,-0.0256,-0.0273,-0.0229,-0.0231,-0.0276,-0.0311,-0.0338,-0.0351,-0.036,-0.0358,-0.0358,-0.033,-0.034,-0.034,-0.0325,-0.0316,-0.0312,-0.0309,-0.0352,-0.0352,-0.0352,0,0,-0.0225,-0.026,-0.0277,-0.0246,-0.0213,-0.0219,-0.0202,-0.02,-0.0226,-0.0242,-0.028,-0.03,-0.0323,-0.0338,-0.0343,-0.0333,-0.0329,-0.0334,-0.0308,-0.0299,-0.0296,-0.0292,-0.0292,-0.0288,-0.0329,-0.0329,-0.0329,0,-0.0249,-0.0253,-0.0261,-0.0237,-0.0192,-0.0201,-0.0178,-0.0195,-0.0203,-0.021,-0.0247,-0.0293,-0.0312,-0.0303,-0.0321,-0.0327,-0.0327,-0.0312,-0.0297,-0.0293,-0.029,-0.029,-0.0287,-0.0328,-0.0328,-0.0328,-0.0328,0,-0.0202,-0.0217,-0.0182,-0.0195,-0.0169,-0.0107,-0.0108,-0.0123,-0.0154,-0.0175,-0.0191,-0.0238,-0.0263,-0.0274,-0.0301,-0.0282,-0.0292,-0.0301,-0.0297,-0.0285,-0.0287,-0.0283,-0.0327,-0.0327,-0.0328,-0.0328,0,0,-0.0203,-0.0187,-0.0157,-0.0171,-0.0118,-0.0085,-0.0077,-0.0077,-0.0068,-0.0119,-0.012,-0.0167,-0.0199,-0.0206,-0.0235,-0.0235,-0.0232,-0.026,-0.026,-0.0255,-0.0219,-0.0232,-0.023,-0.024,-0.0239,-0.0238,-0.0232,0,-0.0175,-0.0132,-0.0118,-0.0075,-0.0066,-0.0042,-0.0034,-0.0025,-0.0041,-0.0055,-0.009,-0.011,-0.0166,-0.0181,-0.0192,-0.0218,-0.0221,-0.0233,-0.0235,-0.0235,-0.0244,-0.0225,-0.0214,-0.0208,-0.0229,-0.0228,-0.0228,0,-0.0137,-0.0099,-0.0065,-0.0045,-0.0033,-0.0019,0.0026,0.0035,0.0032,0.0023,0.0004,-0.0033,-0.0053,-0.0104,-0.0133,-0.014,-0.0178,-0.0201,-0.0201,-0.0211,-0.0241,-0.0222,-0.0201,-0.0222,-0.0223,-0.0223,-0.0224,0,-0.0105,-0.0068,-0.0043,-0.0007,0.0014,0.0023,0.0029,0.005,0.007,0.0071,0.0086,0.0049,0.0034,-0.0012,-0.0089,-0.0108,-0.0115,-0.0144,-0.0186,-0.0188,-0.0176,-0.0178,-0.0153,-0.0153,-0.0153,-0.0153,-0.0153,0,-0.0062,-0.0034,-0.0036,0.0014,0.0042,0.0044,0.0081,0.009,0.0115,0.0161,0.0118,0.0152,0.0056,0.0029,-0.0048,-0.0104,-0.0084,-0.017,-0.018,-0.0173,-0.0175,-0.0184,-0.0187,-0.0153,-0.0153,-0.0153,-0.0153,0,-0.0055,-0.0037,-0.0017,0.0028,0.0043,0.0062,0.011,0.0145,0.0165,0.0229,0.023,0.0226,0.02,0.0106,0.0039,-0.004,-0.0099,-0.0126,-0.0118,-0.0128,-0.019,-0.0193,-0.0165,-0.0165,-0.0165,-0.0165,-0.0165,0,-0.0052,-0.005,0.0006,0.0049,0.0064,0.0101,0.0144,0.0167,0.0221,0.029,0.0332,0.0315,0.033,0.022,0.0076,-0.0046,-0.0073,-0.012,-0.0156,-0.0174,-0.0188,-0.019,-0.0193,-0.014,-0.014,-0.0139,-0.0139,0,-0.0047,-0.0047,0.0001,0.0087,0.0135,0.0192,0.025,0.0303,0.0355,0.0422,0.0511,0.052,0.0404,0.0285,0.0095,0.0009,-0.0105,-0.0123,-0.0122,-0.0143,-0.0151,-0.0165,-0.0168,-0.0139,-0.0139,-0.0139,-0.0139,-0.0139,-0.0039,-0.0014,0.0051,0.0125,0.0194,0.0289,0.0365,0.0444,0.0546,0.0659,0.0641,0.0663,0.0487,0.0257,0.0092,-0.0091,-0.0088,-0.0155,-0.0154,-0.0154,-0.0157,-0.0165,-0.0156,-0.0156,-0.0157,-0.0157,-0.0157,0,-0.0018,0.0026,0.0098,0.021,0.0304,0.0325,0.0454,0.0552,0.0703,0.0752,0.0815,0.0668,0.0504,0.0302,0.0028,-0.0135,-0.0151,-0.018,-0.017,-0.0169,-0.0168,-0.0172,-0.0176,-0.0176,-0.0177,-0.0177,0,0,-0.0005,0.0085,0.0125,0.029,0.0376,0.0519,0.0608,0.0748,0.0823,0.0911,0.0896,0.0826,0.0565,0.0365,0.0139,-0.0018,-0.005,-0.0043,-0.001,0.003,0.0033,-0.0137,-0.0139,0,0,0,0,0]}],[{"header":{"parameterUnit":"m.s-1","parameterCategory":2,"la1":30.2991,"la2":30.254,"lo1":-89.0895,"lo2":-89.0444,"dy":0.0017,"dx":0.0017,"nx":28,"ny":28,"refTime":"2023-08-03T09:00:00:Z","depth":"4","parameterNumber":2,"parameterNumberName":"U-component_of_CURRENTS"},"data":[0,0,0,0,0,0,0,0,0,0,0,0,0,0,0,0,0,0,0,0,0,0,0,0,0,0,0,0,0,0,0,0,0,0,0,0,0,0,0,0,0,0,0,0,0,0,0,0,0,0,0,0,0,0,0,0,0,0,-0.0435,-0.0435,0,-0.0453,-0.0453,-0.0453,-0.0486,-0.0486,-0.0487,-0.0487,-0.0601,-0.0603,-0.0606,0,0,0,0,0,0,0,0,0,0,0,0,0,-0.0449,-0.0449,-0.0435,-0.0435,-0.0435,-0.0452,-0.0453,-0.0453,-0.0486,-0.0486,-0.0487,-0.0487,-0.06,-0.0603,-0.0606,0,0,0,0,0,0,0,0,0,0,0,0,0,-0.0455,-0.0449,-0.0435,-0.0451,-0.0453,-0.0452,-0.0453,-0.0454,-0.0486,-0.0486,-0.0487,-0.0487,-0.0599,-0.0603,-0.0607,-0.0619,0,0,-0.0619,-0.062,0,0,0,0,0,0,0,0,-0.0454,-0.0454,-0.0449,-0.045,-0.0452,-0.0465,-0.05,-0.0513,-0.0485,-0.0476,-0.0487,-0.0488,-0.0562,-0.0569,-0.0573,-0.0624,-0.0629,-0.0619,-0.0621,-0.0623,-0.0624,0,0,0,0,0,0,0,-0.0454,-0.0454,-0.0444,-0.0449,-0.045,-0.0465,-0.0466,-0.0502,-0.0519,-0.0477,-0.0478,-0.0476,-0.0564,-0.0569,-0.0577,-0.0631,-0.0619,-0.0623,-0.0625,-0.0627,-0.0779,-0.0781,0,0,0,0,0,0,-0.0445,-0.0453,-0.0444,-0.0444,-0.0452,-0.0464,-0.0465,-0.0462,-0.0517,-0.0524,-0.0476,-0.0478,-0.0562,-0.0572,-0.0581,-0.0718,-0.0623,-0.0627,-0.0629,-0.0777,-0.0779,-0.0781,0,0,0,0,0,0,-0.0445,-0.0444,-0.0443,-0.0448,-0.0448,-0.0462,-0.0459,-0.0462,-0.0478,-0.0514,-0.0524,-0.0489,-0.0563,-0.0575,-0.0632,-0.0718,-0.0629,-0.0632,-0.0775,-0.0778,-0.078,-0.0915,0,0,0,0,0,0,-0.0446,-0.0444,-0.0445,-0.0447,-0.0447,-0.0448,-0.0458,-0.0462,-0.0474,-0.0477,-0.0529,-0.0539,-0.0565,-0.0626,-0.0636,-0.0722,-0.0635,-0.0773,-0.0777,-0.078,-0.0909,-0.0922,-0.0934,0,0,0,0,0,-0.0446,-0.0453,-0.0445,-0.0444,-0.0446,-0.0447,-0.045,-0.0463,-0.0474,-0.048,-0.0525,-0.0538,-0.0654,-0.0631,-0.0642,-0.0731,-0.0772,-0.0776,-0.0779,-0.0903,-0.092,-0.0933,0,0,0,0,0,0,-0.0462,-0.0456,-0.0448,-0.0452,-0.0447,-0.0452,-0.0476,-0.0467,-0.0504,-0.0539,-0.0554,-0.0568,-0.065,-0.0654,-0.0628,-0.0778,-0.0717,-0.0723,-0.0808,-0.0823,-0.0835,-0.0793,-0.0639,0,0,0,0,0,-0.0461,-0.0468,-0.0453,-0.0459,-0.0468,-0.0469,-0.0475,-0.0489,-0.0516,-0.0533,-0.0557,-0.0609,-0.0671,-0.0715,-0.075,-0.0833,-0.0749,-0.0894,-0.0907,-0.0917,-0.0887,-0.0847,-0.0853,-0.0794,-0.0794,-0.0793,0,0,-0.0464,-0.0467,-0.0467,-0.0463,-0.0478,-0.051,-0.0478,-0.0514,-0.0546,-0.0544,-0.061,-0.0644,-0.0693,-0.079,-0.083,-0.0814,-0.0884,-0.0922,-0.0932,-0.0894,-0.0851,-0.0857,-0.0862,-0.0796,-0.0796,-0.0795,0,0,-0.0487,-0.0489,-0.0503,-0.0526,-0.0553,-0.0557,-0.0564,-0.0579,-0.0596,-0.0651,-0.0674,-0.0747,-0.0815,-0.0881,-0.0924,-0.1017,-0.0936,-0.1038,-0.1097,-0.1061,-0.1065,-0.1067,-0.0938,-0.0928,-0.1065,-0.1066,-0.1066,0,-0.0495,-0.0516,-0.0506,-0.0554,-0.0588,-0.058,-0.0626,-0.0645,-0.0671,-0.0683,-0.0693,-0.0795,-0.0866,-0.0975,-0.1035,-0.1054,-0.0962,-0.105,-0.1076,-0.1077,-0.1077,-0.0944,-0.0931,-0.1073,-0.1072,-0.1071,-0.1071,0,-0.0539,-0.0573,-0.0604,-0.0655,-0.068,-0.0734,-0.0756,-0.0777,-0.0798,-0.0802,-0.0873,-0.0943,-0.0973,-0.1062,-0.1098,-0.116,-0.1066,-0.1082,-0.1038,-0.1091,-0.0947,-0.0931,-0.1083,-0.108,-0.1078,-0.1076,0,0,-0.0516,-0.061,-0.0624,-0.0663,-0.0756,-0.0767,-0.0845,-0.0871,-0.0872,-0.0936,-0.0934,-0.1108,-0.1071,-0.1111,-0.1158,-0.1199,-0.1167,-0.1153,-0.1148,-0.102,-0.0989,-0.09,-0.0872,-0.1179,-0.1178,-0.1177,-0.0876,0,-0.0556,-0.065,-0.0689,-0.0779,-0.0833,-0.0878,-0.091,-0.0946,-0.096,-0.0947,-0.1033,-0.1025,-0.1107,-0.1097,-0.1162,-0.116,-0.1133,-0.124,-0.0957,-0.0947,-0.0861,-0.0857,-0.1174,-0.0864,-0.086,-0.0857,-0.0855,0,-0.059,-0.0649,-0.0749,-0.0819,-0.084,-0.0869,-0.0906,-0.0921,-0.093,-0.0926,-0.0948,-0.094,-0.0999,-0.1036,-0.1022,-0.107,-0.101,-0.1019,-0.1007,-0.0858,-0.083,-0.0805,-0.0824,-0.0827,-0.0829,-0.0831,-0.0833,0,-0.0578,-0.0682,-0.0756,-0.0807,-0.0885,-0.0896,-0.0883,-0.0901,-0.0872,-0.083,-0.0783,-0.0838,-0.0787,-0.0802,-0.0829,-0.0879,-0.0779,-0.0832,-0.0672,-0.066,-0.0769,-0.077,-0.0749,-0.0749,-0.075,-0.0751,-0.0752,0,-0.0597,-0.0659,-0.0734,-0.079,-0.079,-0.0837,-0.0793,-0.0786,-0.0741,-0.0673,-0.0695,-0.0627,-0.0722,-0.0695,-0.074,-0.0641,-0.0665,-0.0634,-0.0586,-0.0828,-0.0839,-0.0754,-0.0759,-0.0739,-0.0742,-0.0744,-0.0746,0,-0.0561,-0.0643,-0.074,-0.0815,-0.0792,-0.0775,-0.0688,-0.0642,-0.058,-0.0483,-0.0435,-0.0414,-0.0326,-0.0411,-0.04,-0.045,-0.0424,-0.0363,-0.0535,-0.0507,-0.0327,-0.0343,-0.0109,-0.0104,-0.0099,-0.0095,-0.0092,0,-0.0556,-0.0617,-0.0725,-0.072,-0.0732,-0.067,-0.0604,-0.0549,-0.0483,-0.0344,-0.0288,-0.0158,-0.0148,-0.0035,-0.0149,-0.013,-0.0169,-0.0121,-0.0318,-0.0289,-0.0266,-0.0289,-0.031,-0.0085,-0.0084,-0.0082,-0.0081,0,-0.0557,-0.0627,-0.0678,-0.0649,-0.061,-0.0562,-0.0451,-0.0389,-0.03,-0.0258,-0.008,-0.0016,0.0105,0.0079,0.0111,0.0077,-0.0175,-0.0074,-0.0085,-0.027,-0.0257,-0.0244,-0.027,-0.0065,-0.0067,-0.0069,-0.007,0,-0.0549,-0.0556,-0.0602,-0.0557,-0.0521,-0.0447,-0.0415,-0.0281,-0.0198,-0.0067,0.0007,0.011,0.0153,0.0203,0.0198,0.0198,0.0179,0.0104,0.0083,0.0065,-0.0044,-0.0013,0.0337,0,0,0,0,0,-0.0485,-0.0458,-0.0463,-0.0439,-0.0417,-0.0373,-0.0305,-0.0282,-0.0195,-0.0048,-0.0014,0.0108,0.0209,0.0246,0.0281,0.0241,0.0133,0.0275,0.0023,0.0023,0.0005,-0.0154,0,0,0,0,0,0,-0.0442,-0.043,-0.0435,-0.0347,-0.0292,-0.0237,-0.0208,-0.0177,-0.009,-0.0007,0.0054,0.0116,0.0201,0.0216,0.0294,0.0297,0.0136,0.0325,0.0325,0.0034,0.0017,0.0002,-0.0168,0,0,0,0,0]},{"header":{"parameterUnit":"m.s-1","parameterCategory":2,"la1":30.2991,"la2":30.254,"lo1":-89.0895,"lo2":-89.0444,"dy":0.0017,"dx":0.0017,"nx":28,"ny":28,"refTime":"2023-08-03T09:00:00:Z","depth":"4","parameterNumber":3,"parameterNumberName":"V-component_of_CURRENTS"},"data":[0,0,0,0,0,0,0,0,0,0,0,0,0,0,0,0,0,0,0,0,0,0,0,0,0,0,0,0,0,0,0,0,0,0,0,0,0,0,0,0,0,0,0,0,0,0,0,0,0,0,0,0,0,0,0,0,0,0,0.0394,0.0394,0,0.034,0.0338,0.0337,0.0323,0.0325,0.0326,0.0327,0.0275,0.0273,0.027,0,0,0,0,0,0,0,0,0,0,0,0,0,0.0441,0.044,0.0394,0.0394,0.0394,0.034,0.0338,0.0337,0.0323,0.0325,0.0326,0.0327,0.0276,0.0273,0.027,0,0,0,0,0,0,0,0,0,0,0,0,0,0.0399,0.0439,0.0394,0.0387,0.0386,0.034,0.0338,0.0336,0.0323,0.0325,0.0326,0.0328,0.0277,0.0273,0.027,0.0215,0,0,0.0259,0.0257,0,0,0,0,0,0,0,0,0.0402,0.0397,0.0388,0.0387,0.0387,0.0347,0.0336,0.0299,0.0323,0.0338,0.0327,0.0329,0.0304,0.0298,0.0272,0.0213,0.021,0.0259,0.0256,0.0255,0.0254,0,0,0,0,0,0,0,0.0405,0.0399,0.0364,0.0388,0.0387,0.0372,0.0367,0.0328,0.0306,0.0337,0.0338,0.0344,0.0302,0.0276,0.0271,0.021,0.0259,0.0256,0.0253,0.0252,0.0154,0.0154,0,0,0,0,0,0,0.0428,0.0401,0.0366,0.0364,0.0408,0.037,0.0365,0.0352,0.0307,0.0304,0.0343,0.0344,0.0281,0.0275,0.027,0.0232,0.0255,0.0252,0.025,0.0155,0.0154,0.0154,0,0,0,0,0,0,0.0429,0.0424,0.0369,0.0389,0.0382,0.0369,0.0354,0.035,0.0338,0.0313,0.0308,0.0339,0.0282,0.0275,0.024,0.0229,0.025,0.0247,0.0155,0.0154,0.0154,0.0137,0,0,0,0,0,0,0.043,0.0424,0.0418,0.039,0.0382,0.0341,0.0353,0.0348,0.0343,0.0344,0.0307,0.0303,0.0283,0.0246,0.0237,0.0224,0.0244,0.0156,0.0155,0.0154,0.0138,0.0136,0.0134,0,0,0,0,0,0.0431,0.0419,0.0417,0.0414,0.0375,0.0341,0.0334,0.0326,0.0341,0.0323,0.0306,0.0305,0.0235,0.0242,0.0231,0.0218,0.0156,0.0155,0.0154,0.0139,0.0136,0.0134,0,0,0,0,0,0,0.0428,0.0417,0.0414,0.0397,0.0374,0.0343,0.0338,0.0329,0.0298,0.0317,0.0286,0.0278,0.0246,0.0234,0.0243,0.019,0.02,0.0197,0.0192,0.019,0.0187,0.0197,0.0241,0,0,0,0,0,0.0428,0.042,0.0399,0.0383,0.0382,0.036,0.0349,0.0347,0.0323,0.0312,0.028,0.026,0.0228,0.0214,0.0184,0.0145,0.0146,0.0135,0.0133,0.0131,0.0133,0.0097,0.0091,0.015,0.015,0.015,0,0,0.0423,0.0417,0.0411,0.0384,0.0374,0.0358,0.0356,0.0352,0.0333,0.0311,0.0273,0.0247,0.0217,0.0177,0.0162,0.0168,0.0123,0.013,0.0128,0.0132,0.0095,0.0089,0.0084,0.015,0.015,0.015,0,0,0.0405,0.0408,0.0392,0.0385,0.0383,0.0369,0.0372,0.0344,0.0329,0.0293,0.0274,0.0238,0.0192,0.0154,0.0135,0.0103,0.0112,0.0105,0.0098,0.0062,0.0056,0.0052,0.0079,0.0077,0.0104,0.0104,0.0104,0,0.0397,0.0382,0.038,0.0372,0.0374,0.0377,0.0364,0.0343,0.03,0.028,0.0291,0.0206,0.0179,0.0118,0.0111,0.0096,0.0103,0.0107,0.0058,0.0053,0.0049,0.0078,0.0076,0.0103,0.0104,0.0104,0.0104,0,0.0373,0.0368,0.0368,0.0359,0.0347,0.0351,0.0336,0.0317,0.0314,0.0286,0.0234,0.0186,0.0142,0.0121,0.0107,0.0054,0.0082,0.0058,0.0064,0.0041,0.0075,0.0073,0.0102,0.0102,0.0103,0.0103,0,0,0.0345,0.0346,0.0354,0.0348,0.0356,0.034,0.0325,0.0291,0.0277,0.024,0.0199,0.0138,0.0126,0.0104,0.0071,0.0032,0.0012,0.0037,0.0036,0.0066,-0.0016,-0.0038,-0.0042,-0.0022,-0.0023,-0.0024,0.0033,0,0.033,0.0312,0.0321,0.0309,0.0299,0.0313,0.029,0.0267,0.0248,0.0207,0.0167,0.0132,0.0117,0.0105,0.0058,0.001,0.0001,0.0003,0.0001,0.0002,-0.0017,-0.0049,-0.0028,0.0032,0.0031,0.0031,0.003,0,0.0317,0.0303,0.0302,0.0282,0.0282,0.0303,0.0287,0.0264,0.0224,0.0206,0.017,0.0138,0.0081,0.0079,0.0009,0.0014,0.0012,-0.0015,-0.0015,-0.0035,-0.0027,0.005,0.0027,0.0027,0.0027,0.0028,0.0028,0,0.0305,0.0291,0.0296,0.0302,0.0288,0.0316,0.0321,0.0293,0.0267,0.0238,0.0215,0.0144,0.0119,0.0076,0.0016,0.0026,-0.0058,-0.005,-0.0058,-0.0056,-0.0042,-0.0038,-0.0075,-0.0075,-0.0075,-0.0075,-0.0076,0,0.0288,0.0285,0.0321,0.0332,0.0358,0.0345,0.0372,0.0357,0.0323,0.0277,0.0245,0.0186,0.0113,0.0043,0.0016,-0.0041,-0.0048,-0.0059,-0.0062,-0.0043,-0.0041,-0.0041,-0.0037,-0.0073,-0.0074,-0.0074,-0.0074,0,0.0272,0.029,0.0311,0.0344,0.0373,0.0411,0.0447,0.043,0.0407,0.0349,0.0343,0.0229,0.0149,0.0072,-0.0009,-0.0037,-0.0089,-0.0095,-0.0041,-0.0041,-0.0038,-0.0036,-0.0065,-0.0066,-0.0067,-0.0067,-0.0068,0,0.026,0.0281,0.0362,0.042,0.0472,0.0528,0.0552,0.0515,0.0469,0.0355,0.03,0.022,0.0143,0.0042,-0.0046,-0.0085,-0.0097,-0.009,-0.0087,-0.0047,-0.0046,-0.0043,-0.004,-0.0069,-0.0069,-0.0069,-0.0069,0,0.0262,0.0329,0.0349,0.0472,0.0554,0.0565,0.0586,0.0547,0.0449,0.0417,0.0292,0.0223,0.0121,0.0038,-0.0008,-0.0047,-0.009,-0.0096,-0.0093,-0.009,-0.0051,-0.0049,-0.0046,-0.0071,-0.0071,-0.0071,-0.0071,0,0.0294,0.0328,0.0411,0.0502,0.059,0.0587,0.0586,0.0527,0.0473,0.0328,0.0288,0.0191,0.0129,0.0055,-0.0007,-0.0043,-0.0027,-0.0014,-0.0015,-0.0013,-0.0042,0.0012,0.0004,0,0,0,0,0,0.0315,0.0344,0.0432,0.0503,0.0581,0.0622,0.058,0.054,0.0437,0.0367,0.0328,0.024,0.0143,0.0084,0.0055,-0.0019,-0.0047,-0.0057,-0.0035,-0.0084,-0.0081,-0.0131,0,0,0,0,0,0,0.0331,0.0398,0.0412,0.0492,0.0547,0.0581,0.056,0.0482,0.0428,0.0351,0.031,0.0264,0.0178,0.0192,0.0075,0.0052,0.0065,-0.0107,-0.0107,-0.0085,-0.0083,-0.0081,-0.0131,0,0,0,0,0]}]]